owner,sensor,date,latitude,longitude,vertical_datum,direction_of_sea_water_velocity,sea_water_speed,upward_sea_water_velocity,qcFlag 
TABS,ioos:station:wmo:42051:1,1999-03-01T00:00:00Z,29.6350,-93.6417,2.0,55.55132514,27.6486817,-99999.0,'11111222,11111222,99999999' 
TABS,ioos:station:wmo:42051:1,1999-03-01T02:30:00Z,29.6350,-93.6417,2.0,55.55132514,27.6486817,-99999.0,'11111222,11111222,99999999' 
TABS,ioos:station:wmo:42051:1,1999-03-01T03:00:00Z,29.6350,-93.6417,2.0,77.42738168,19.84588874,-99999.0,'11111222,11111222,99999999' 
TABS,ioos:station:wmo:42051:1,1999-03-01T03:30:00Z,29.6350,-93.6417,2.0,107.8012269,16.58399831,-99999.0,'11111222,11111222,99999999' 
TABS,ioos:station:wmo:42051:1,1999-03-01T04:00:00Z,29.6350,-93.6417,2.0,134.9998948,10.53589104,-99999.0,'11111222,11111222,99999999' 
TABS,ioos:station:wmo:42051:1,1999-03-01T04:30:00Z,29.6350,-93.6417,2.0,104.0079444,9.832395435,-99999.0,'11133222,11111222,99999999' 
TABS,ioos:station:wmo:42051:1,1999-03-01T05:00:00Z,29.6350,-93.6417,2.0,104.3666952,12.6144877,-99999.0,'11111222,11111222,99999999' 
TABS,ioos:station:wmo:42051:1,1999-03-01T05:30:00Z,29.6350,-93.6417,2.0,126.8631243,17.13600012,-99999.0,'11111222,11111222,99999999' 
TABS,ioos:station:wmo:42051:1,1999-03-01T06:00:00Z,29.6350,-93.6417,2.0,131.9107456,15.614394,-99999.0,'11111222,11111222,99999999' 
TABS,ioos:station:wmo:42051:1,1999-03-01T06:30:00Z,29.6350,-93.6417,2.0,137.1618748,16.8694339,-99999.0,'11111222,11111222,99999999' 
TABS,ioos:station:wmo:42051:1,1999-03-01T07:00:00Z,29.6350,-93.6417,2.0,149.2961315,23.05136222,-99999.0,'11111222,11111222,99999999' 
TABS,ioos:station:wmo:42051:1,1999-03-01T07:30:00Z,29.6350,-93.6417,2.0,160.9769519,27.42787815,-99999.0,'11111222,11111222,99999999' 
TABS,ioos:station:wmo:42051:1,1999-03-01T08:00:00Z,29.6350,-93.6417,2.0,170.7409171,27.78195997,-99999.0,'11111222,11111222,99999999' 
TABS,ioos:station:wmo:42051:1,1999-03-01T08:30:00Z,29.6350,-93.6417,2.0,165.7961625,24.90123893,-99999.0,'11111222,11111222,99999999' 
TABS,ioos:station:wmo:42051:1,1999-03-01T09:00:00Z,29.6350,-93.6417,2.0,173.3909753,28.49937719,-99999.0,'11111222,11111222,99999999' 
TABS,ioos:station:wmo:42051:1,1999-03-01T09:30:00Z,29.6350,-93.6417,2.0,180.2941139,29.20038527,-99999.0,'11111222,11111222,99999999' 
TABS,ioos:station:wmo:42051:1,1999-03-01T10:00:00Z,29.6350,-93.6417,2.0,183.0877455,30.4442047,-99999.0,'11111222,11111222,99999999' 
TABS,ioos:station:wmo:42051:1,1999-03-01T10:30:00Z,29.6350,-93.6417,2.0,183.403064,30.15317728,-99999.0,'11111222,11111222,99999999' 
TABS,ioos:station:wmo:42051:1,1999-03-01T11:00:00Z,29.6350,-93.6417,2.0,184.6346454,25.86458003,-99999.0,'11111222,11111222,99999999' 
TABS,ioos:station:wmo:42051:1,1999-03-01T11:30:00Z,29.6350,-93.6417,2.0,179.0165512,26.22386127,-99999.0,'11111222,11111222,99999999' 
TABS,ioos:station:wmo:42051:1,1999-03-01T12:00:00Z,29.6350,-93.6417,2.0,181.3567165,25.3371052,-99999.0,'11111222,11111222,99999999' 
TABS,ioos:station:wmo:42051:1,1999-03-01T12:30:00Z,29.6350,-93.6417,2.0,187.4654285,25.24399533,-99999.0,'11111222,11111222,99999999' 
TABS,ioos:station:wmo:42051:1,1999-03-01T13:00:00Z,29.6350,-93.6417,2.0,189.3877441,22.80544672,-99999.0,'11111222,11111222,99999999' 
TABS,ioos:station:wmo:42051:1,1999-03-01T13:30:00Z,29.6350,-93.6417,2.0,194.4212868,20.91917063,-99999.0,'11111222,11111222,99999999' 
TABS,ioos:station:wmo:42051:1,1999-03-01T14:00:00Z,29.6350,-93.6417,2.0,194.1539894,17.66633239,-99999.0,'11111222,11111222,99999999' 
TABS,ioos:station:wmo:42051:1,1999-03-01T14:30:00Z,29.6350,-93.6417,2.0,191.8986169,17.36307864,-99999.0,'11111222,11111222,99999999' 
TABS,ioos:station:wmo:42051:1,1999-03-01T15:00:00Z,29.6350,-93.6417,2.0,186.5508498,7.800935841,-99999.0,'11133222,11111222,99999999' 
TABS,ioos:station:wmo:42051:1,1999-03-01T15:30:00Z,29.6350,-93.6417,2.0,216.3320684,9.806431563,-99999.0,'11133222,11111222,99999999' 
TABS,ioos:station:wmo:42051:1,1999-03-01T16:00:00Z,29.6350,-93.6417,2.0,223.3526595,11.07079491,-99999.0,'11111222,11111222,99999999' 
TABS,ioos:station:wmo:42051:1,1999-03-01T16:30:00Z,29.6350,-93.6417,2.0,249.1115012,12.11630307,-99999.0,'11111222,11111222,99999999' 
TABS,ioos:station:wmo:42051:1,1999-03-01T17:00:00Z,29.6350,-93.6417,2.0,265.135076,12.26417547,-99999.0,'11111222,11111222,99999999' 
TABS,ioos:station:wmo:42051:1,1999-03-01T17:30:00Z,29.6350,-93.6417,2.0,278.3155272,14.45192375,-99999.0,'11111222,11111222,99999999' 
TABS,ioos:station:wmo:42051:1,1999-03-01T18:00:00Z,29.6350,-93.6417,2.0,282.5442801,16.48346141,-99999.0,'11111222,11111222,99999999' 
TABS,ioos:station:wmo:42051:1,1999-03-01T18:30:00Z,29.6350,-93.6417,2.0,283.8842499,15.50293198,-99999.0,'11111222,11111222,99999999' 
TABS,ioos:station:wmo:42051:1,1999-03-01T19:00:00Z,29.6350,-93.6417,2.0,300.6282504,21.65035335,-99999.0,'11111222,11111222,99999999' 
TABS,ioos:station:wmo:42051:1,1999-03-01T19:30:00Z,29.6350,-93.6417,2.0,310.7330396,19.86112031,-99999.0,'11111222,11111222,99999999' 
TABS,ioos:station:wmo:42051:1,1999-03-01T20:00:00Z,29.6350,-93.6417,2.0,304.1474413,20.16676722,-99999.0,'11111222,11111222,99999999' 
TABS,ioos:station:wmo:42051:1,1999-03-01T20:30:00Z,29.6350,-93.6417,2.0,302.3266687,20.62682234,-99999.0,'11111222,11111222,99999999' 
TABS,ioos:station:wmo:42051:1,1999-03-01T21:00:00Z,29.6350,-93.6417,2.0,315.0003157,16.22102956,-99999.0,'11111222,11111222,99999999' 
TABS,ioos:station:wmo:42051:1,1999-03-01T21:30:00Z,29.6350,-93.6417,2.0,303.8317405,16.86571078,-99999.0,'11111222,11111222,99999999' 
TABS,ioos:station:wmo:42051:1,1999-03-01T22:00:00Z,29.6350,-93.6417,2.0,332.6448944,19.1291453,-99999.0,'11111222,11111222,99999999' 
TABS,ioos:station:wmo:42051:1,1999-03-01T22:30:00Z,29.6350,-93.6417,2.0,340.8275295,14.98095124,-99999.0,'11111222,11111222,99999999' 
TABS,ioos:station:wmo:42051:1,1999-03-01T23:00:00Z,29.6350,-93.6417,2.0,348.3371276,13.99903568,-99999.0,'11111222,11111222,99999999' 
TABS,ioos:station:wmo:42051:1,1999-03-01T23:30:00Z,29.6350,-93.6417,2.0,358.2875619,15.05672607,-99999.0,'11111222,11111222,99999999' 
TABS,ioos:station:wmo:42051:1,1999-03-02T00:00:00Z,29.6350,-93.6417,2.0,18.30783313,19.92872299,-99999.0,'11111222,11111222,99999999' 
TABS,ioos:station:wmo:42051:1,1999-03-02T00:30:00Z,29.6350,-93.6417,2.0,26.37097773,19.7893153,-99999.0,'11111222,11111222,99999999' 
TABS,ioos:station:wmo:42051:1,1999-03-02T01:00:00Z,29.6350,-93.6417,2.0,30.11335943,19.29400166,-99999.0,'11111222,11111222,99999999' 
TABS,ioos:station:wmo:42051:1,1999-03-02T01:30:00Z,29.6350,-93.6417,2.0,32.50433756,19.9679368,-99999.0,'11111222,11111222,99999999' 
TABS,ioos:station:wmo:42051:1,1999-03-02T02:00:00Z,29.6350,-93.6417,2.0,41.73643317,20.36942807,-99999.0,'11111222,11111222,99999999' 
TABS,ioos:station:wmo:42051:1,1999-03-02T02:30:00Z,29.6350,-93.6417,2.0,42.46287069,21.40389217,-99999.0,'11111222,11111222,99999999' 
TABS,ioos:station:wmo:42051:1,1999-03-02T03:00:00Z,29.6350,-93.6417,2.0,48.69613218,19.63476763,-99999.0,'11111222,11111222,99999999' 
TABS,ioos:station:wmo:42051:1,1999-03-02T03:30:00Z,29.6350,-93.6417,2.0,57.82748346,17.07133855,-99999.0,'11111222,11111222,99999999' 
TABS,ioos:station:wmo:42051:1,1999-03-02T04:00:00Z,29.6350,-93.6417,2.0,50.58238669,19.48125766,-99999.0,'11111222,11111222,99999999' 
TABS,ioos:station:wmo:42051:1,1999-03-02T04:30:00Z,29.6350,-93.6417,2.0,55.39701052,18.10216562,-99999.0,'11111222,11111222,99999999' 
TABS,ioos:station:wmo:42051:1,1999-03-02T05:00:00Z,29.6350,-93.6417,2.0,43.4859605,23.81660135,-99999.0,'11111222,11111222,99999999' 
TABS,ioos:station:wmo:42051:1,1999-03-02T05:30:00Z,29.6350,-93.6417,2.0,62.7108068,15.92207587,-99999.0,'11111222,11111222,99999999' 
TABS,ioos:station:wmo:42051:1,1999-03-02T06:00:00Z,29.6350,-93.6417,2.0,72.44067209,15.3135365,-99999.0,'11111222,11111222,99999999' 
TABS,ioos:station:wmo:42051:1,1999-03-02T06:30:00Z,29.6350,-93.6417,2.0,82.70918434,17.57207444,-99999.0,'11111222,11111222,99999999' 
TABS,ioos:station:wmo:42051:1,1999-03-02T07:00:00Z,29.6350,-93.6417,2.0,103.7899672,17.4942562,-99999.0,'11111222,11111222,99999999' 
TABS,ioos:station:wmo:42051:1,1999-03-02T07:30:00Z,29.6350,-93.6417,2.0,113.562782,15.28437765,-99999.0,'11111222,11111222,99999999' 
TABS,ioos:station:wmo:42051:1,1999-03-02T08:00:00Z,29.6350,-93.6417,2.0,125.106754,18.39670894,-99999.0,'11111222,11111222,99999999' 
TABS,ioos:station:wmo:42051:1,1999-03-02T08:30:00Z,29.6350,-93.6417,2.0,133.0907468,15.7064891,-99999.0,'11111222,11111222,99999999' 
TABS,ioos:station:wmo:42051:1,1999-03-02T09:00:00Z,29.6350,-93.6417,2.0,137.5776982,16.35071252,-99999.0,'11111222,11111222,99999999' 
TABS,ioos:station:wmo:42051:1,1999-03-02T09:30:00Z,29.6350,-93.6417,2.0,146.3013476,18.79878985,-99999.0,'11111222,11111222,99999999' 
TABS,ioos:station:wmo:42051:1,1999-03-02T10:00:00Z,29.6350,-93.6417,2.0,150.94223,18.4068384,-99999.0,'11111222,11111222,99999999' 
TABS,ioos:station:wmo:42051:1,1999-03-02T10:30:00Z,29.6350,-93.6417,2.0,155.4797145,18.67411578,-99999.0,'11111222,11111222,99999999' 
TABS,ioos:station:wmo:42051:1,1999-03-02T11:00:00Z,29.6350,-93.6417,2.0,159.4952767,20.84035508,-99999.0,'11111222,11111222,99999999' 
TABS,ioos:station:wmo:42051:1,1999-03-02T11:30:00Z,29.6350,-93.6417,2.0,173.8095288,20.68058268,-99999.0,'11111222,11111222,99999999' 
TABS,ioos:station:wmo:42051:1,1999-03-02T12:00:00Z,29.6350,-93.6417,2.0,178.7727977,21.01481858,-99999.0,'11111222,11111222,99999999' 
TABS,ioos:station:wmo:42051:1,1999-03-02T12:30:00Z,29.6350,-93.6417,2.0,179.9997895,18.48,-99999.0,'11111222,11111222,99999999' 
TABS,ioos:station:wmo:42051:1,1999-03-02T13:00:00Z,29.6350,-93.6417,2.0,183.3853472,17.61073536,-99999.0,'11111222,11111222,99999999' 
TABS,ioos:station:wmo:42051:1,1999-03-02T13:30:00Z,29.6350,-93.6417,2.0,207.392427,13.93215705,-99999.0,'11111222,11111222,99999999' 
TABS,ioos:station:wmo:42051:1,1999-03-02T14:00:00Z,29.6350,-93.6417,2.0,207.1041386,14.72739624,-99999.0,'11111222,11111222,99999999' 
TABS,ioos:station:wmo:42051:1,1999-03-02T14:30:00Z,29.6350,-93.6417,2.0,217.545046,10.51873091,-99999.0,'11111222,11111222,99999999' 
TABS,ioos:station:wmo:42051:1,1999-03-02T15:00:00Z,29.6350,-93.6417,2.0,257.6426107,9.76625312,-99999.0,'11133222,11111222,99999999' 
TABS,ioos:station:wmo:42051:1,1999-03-02T15:30:00Z,29.6350,-93.6417,2.0,274.1600535,14.33776831,-99999.0,'11111222,11111222,99999999' 
TABS,ioos:station:wmo:42051:1,1999-03-02T16:00:00Z,29.6350,-93.6417,2.0,286.8598584,15.41244303,-99999.0,'11111222,11111222,99999999' 
TABS,ioos:station:wmo:42051:1,1999-03-02T16:30:00Z,29.6350,-93.6417,2.0,309.5200105,18.73202872,-99999.0,'11111222,11111222,99999999' 
TABS,ioos:station:wmo:42051:1,1999-03-02T17:00:00Z,29.6350,-93.6417,2.0,315.0003157,20.64751801,-99999.0,'11111222,11111222,99999999' 
TABS,ioos:station:wmo:42051:1,1999-03-02T17:30:00Z,29.6350,-93.6417,2.0,318.8644981,17.20767271,-99999.0,'11111222,11111222,99999999' 
TABS,ioos:station:wmo:42051:1,1999-03-02T18:00:00Z,29.6350,-93.6417,2.0,333.9622833,21.39113134,-99999.0,'11111222,11111222,99999999' 
TABS,ioos:station:wmo:42051:1,1999-03-02T18:30:00Z,29.6350,-93.6417,2.0,334.9216012,17.93035415,-99999.0,'11111222,11111222,99999999' 
TABS,ioos:station:wmo:42051:1,1999-03-02T19:00:00Z,29.6350,-93.6417,2.0,337.9581843,19.45175828,-99999.0,'11111222,11111222,99999999' 
TABS,ioos:station:wmo:42051:1,1999-03-02T19:30:00Z,29.6350,-93.6417,2.0,334.0595177,18.05955703,-99999.0,'11111222,11111222,99999999' 
TABS,ioos:station:wmo:42051:1,1999-03-02T20:00:00Z,29.6350,-93.6417,2.0,342.3648941,20.16780851,-99999.0,'11111222,11111222,99999999' 
TABS,ioos:station:wmo:42051:1,1999-03-02T20:30:00Z,29.6350,-93.6417,2.0,343.5731778,18.95368038,-99999.0,'11111222,11111222,99999999' 
TABS,ioos:station:wmo:42051:1,1999-03-02T21:00:00Z,29.6350,-93.6417,2.0,339.4523156,16.55312961,-99999.0,'11111222,11111222,99999999' 
TABS,ioos:station:wmo:42051:1,1999-03-02T21:30:00Z,29.6350,-93.6417,2.0,346.4017206,8.889190064,-99999.0,'11133222,11111222,99999999' 
TABS,ioos:station:wmo:42051:1,1999-03-02T22:00:00Z,29.6350,-93.6417,2.0,0.000210459,8.64,-99999.0,'11133222,11111222,99999999' 
TABS,ioos:station:wmo:42051:1,1999-03-02T22:30:00Z,29.6350,-93.6417,2.0,31.21629668,6.618194618,-99999.0,'11133222,11111222,99999999' 
TABS,ioos:station:wmo:42051:1,1999-03-02T23:00:00Z,29.6350,-93.6417,2.0,73.69636167,2.636000759,-99999.0,'11133222,11111222,99999999' 
TABS,ioos:station:wmo:42051:1,1999-03-02T23:30:00Z,29.6350,-93.6417,2.0,102.4834974,4.117341375,-99999.0,'11133222,11111222,99999999' 
TABS,ioos:station:wmo:42051:1,1999-03-03T00:00:00Z,29.6350,-93.6417,2.0,137.2195451,5.477116029,-99999.0,'11133222,11111222,99999999' 
TABS,ioos:station:wmo:42051:1,1999-03-03T00:30:00Z,29.6350,-93.6417,2.0,136.9887619,12.02098582,-99999.0,'11111222,11111222,99999999' 
TABS,ioos:station:wmo:42051:1,1999-03-03T01:00:00Z,29.6350,-93.6417,2.0,137.8527994,10.65516307,-99999.0,'11111222,11111222,99999999' 
TABS,ioos:station:wmo:42051:1,1999-03-03T01:30:00Z,29.6350,-93.6417,2.0,141.4574506,12.1971964,-99999.0,'11111222,11111222,99999999' 
TABS,ioos:station:wmo:42051:1,1999-03-03T02:00:00Z,29.6350,-93.6417,2.0,148.5915945,16.57926717,-99999.0,'11111222,11111222,99999999' 
TABS,ioos:station:wmo:42051:1,1999-03-03T02:30:00Z,29.6350,-93.6417,2.0,130.4503262,11.94531707,-99999.0,'11111222,11111222,99999999' 
TABS,ioos:station:wmo:42051:1,1999-03-03T03:00:00Z,29.6350,-93.6417,2.0,114.9438469,16.59826798,-99999.0,'11111222,11111222,99999999' 
TABS,ioos:station:wmo:42051:1,1999-03-03T03:30:00Z,29.6350,-93.6417,2.0,102.9186881,11.31643937,-99999.0,'11111222,11111222,99999999' 
TABS,ioos:station:wmo:42051:1,1999-03-03T04:00:00Z,29.6350,-93.6417,2.0,107.4128058,10.45931642,-99999.0,'11111222,11111222,99999999' 
TABS,ioos:station:wmo:42051:1,1999-03-03T04:30:00Z,29.6350,-93.6417,2.0,132.6897637,18.24404012,-99999.0,'11111222,11111222,99999999' 
TABS,ioos:station:wmo:42051:1,1999-03-03T05:00:00Z,29.6350,-93.6417,2.0,155.2364286,17.06963679,-99999.0,'11111222,11111222,99999999' 
TABS,ioos:station:wmo:42051:1,1999-03-03T05:30:00Z,29.6350,-93.6417,2.0,165.2063165,19.26871298,-99999.0,'11111222,11111222,99999999' 
TABS,ioos:station:wmo:42051:1,1999-03-03T06:00:00Z,29.6350,-93.6417,2.0,177.6486635,25.35134119,-99999.0,'11111222,11111222,99999999' 
TABS,ioos:station:wmo:42051:1,1999-03-03T06:30:00Z,29.6350,-93.6417,2.0,184.3364781,27.63913349,-99999.0,'11111222,11111222,99999999' 
TABS,ioos:station:wmo:42051:1,1999-03-03T07:00:00Z,29.6350,-93.6417,2.0,187.0184566,28.07034913,-99999.0,'11111222,11111222,99999999' 
TABS,ioos:station:wmo:42051:1,1999-03-03T07:30:00Z,29.6350,-93.6417,2.0,191.0708182,28.69400112,-99999.0,'11111222,11111222,99999999' 
TABS,ioos:station:wmo:42051:1,1999-03-03T08:00:00Z,29.6350,-93.6417,2.0,195.9480508,27.11360175,-99999.0,'11111222,11111222,99999999' 
TABS,ioos:station:wmo:42051:1,1999-03-03T08:30:00Z,29.6350,-93.6417,2.0,195.3658388,32.60557008,-99999.0,'11111222,11111222,99999999' 
TABS,ioos:station:wmo:42051:1,1999-03-03T09:00:00Z,29.6350,-93.6417,2.0,198.7652434,32.88823498,-99999.0,'11111222,11111222,99999999' 
TABS,ioos:station:wmo:42051:1,1999-03-03T09:30:00Z,29.6350,-93.6417,2.0,203.4720179,32.16125153,-99999.0,'11111222,11111222,99999999' 
TABS,ioos:station:wmo:42051:1,1999-03-03T10:00:00Z,29.6350,-93.6417,2.0,198.4296351,35.80647009,-99999.0,'11111222,11111222,99999999' 
TABS,ioos:station:wmo:42051:1,1999-03-03T10:30:00Z,29.6350,-93.6417,2.0,206.1224947,34.1815535,-99999.0,'11111222,11111222,99999999' 
TABS,ioos:station:wmo:42051:1,1999-03-03T11:00:00Z,29.6350,-93.6417,2.0,217.5034079,24.22748233,-99999.0,'11111222,11111222,99999999' 
TABS,ioos:station:wmo:42051:1,1999-03-03T11:30:00Z,29.6350,-93.6417,2.0,211.7819272,28.57457961,-99999.0,'11111222,11111222,99999999' 
TABS,ioos:station:wmo:42051:1,1999-03-03T12:00:00Z,29.6350,-93.6417,2.0,218.5520334,22.47969083,-99999.0,'11111222,11111222,99999999' 
TABS,ioos:station:wmo:42051:1,1999-03-03T12:30:00Z,29.6350,-93.6417,2.0,227.506162,14.55203766,-99999.0,'11111222,11111222,99999999' 
TABS,ioos:station:wmo:42051:1,1999-03-03T13:00:00Z,29.6350,-93.6417,2.0,218.5421285,12.1971964,-99999.0,'11111222,11111222,99999999' 
TABS,ioos:station:wmo:42051:1,1999-03-03T13:30:00Z,29.6350,-93.6417,2.0,208.9756121,14.13999293,-99999.0,'11111222,11111222,99999999' 
TABS,ioos:station:wmo:42051:1,1999-03-03T14:00:00Z,29.6350,-93.6417,2.0,223.2159673,10.22264643,-99999.0,'11111222,11111222,99999999' 
TABS,ioos:station:wmo:42051:1,1999-03-03T14:30:00Z,29.6350,-93.6417,2.0,256.1699815,8.743466132,-99999.0,'11133222,11111222,99999999' 
TABS,ioos:station:wmo:42051:1,1999-03-03T15:00:00Z,29.6350,-93.6417,2.0,272.9310866,8.801511234,-99999.0,'11133222,11111222,99999999' 
TABS,ioos:station:wmo:42051:1,1999-03-03T15:30:00Z,29.6350,-93.6417,2.0,248.4359605,12.97835891,-99999.0,'11111222,11111222,99999999' 
TABS,ioos:station:wmo:42051:1,1999-03-03T16:00:00Z,29.6350,-93.6417,2.0,274.5792606,9.269584672,-99999.0,'11133222,11111222,99999999' 
TABS,ioos:station:wmo:42051:1,1999-03-03T16:30:00Z,29.6350,-93.6417,2.0,310.6066452,12.3682901,-99999.0,'11111222,11111222,99999999' 
TABS,ioos:station:wmo:42051:1,1999-03-03T17:00:00Z,29.6350,-93.6417,2.0,326.5486872,9.995784111,-99999.0,'11133222,11111222,99999999' 
TABS,ioos:station:wmo:42051:1,1999-03-03T17:30:00Z,29.6350,-93.6417,2.0,319.696522,8.982126697,-99999.0,'11133222,11111222,99999999' 
TABS,ioos:station:wmo:42051:1,1999-03-03T18:00:00Z,29.6350,-93.6417,2.0,315.0003157,9.687362902,-99999.0,'11133222,11111222,99999999' 
TABS,ioos:station:wmo:42051:1,1999-03-03T18:30:00Z,29.6350,-93.6417,2.0,308.015332,10.40807859,-99999.0,'11111222,11111222,99999999' 
TABS,ioos:station:wmo:42051:1,1999-03-03T19:00:00Z,29.6350,-93.6417,2.0,287.7711038,11.72967604,-99999.0,'11111222,11111222,99999999' 
TABS,ioos:station:wmo:42051:1,1999-03-03T19:30:00Z,29.6350,-93.6417,2.0,295.4291164,13.53087211,-99999.0,'11111222,11111222,99999999' 
TABS,ioos:station:wmo:42051:1,1999-03-03T20:00:00Z,29.6350,-93.6417,2.0,304.8709123,11.98129375,-99999.0,'11111222,11111222,99999999' 
TABS,ioos:station:wmo:42051:1,1999-03-03T20:30:00Z,29.6350,-93.6417,2.0,315.0003157,8.216580797,-99999.0,'11133222,11111222,99999999' 
TABS,ioos:station:wmo:42051:1,1999-03-03T21:00:00Z,29.6350,-93.6417,2.0,305.1116058,9.840635142,-99999.0,'11133222,11111222,99999999' 
TABS,ioos:station:wmo:42051:1,1999-03-03T21:30:00Z,29.6350,-93.6417,2.0,323.8115569,7.570534988,-99999.0,'11133222,11111222,99999999' 
TABS,ioos:station:wmo:42051:1,1999-03-03T22:00:00Z,29.6350,-93.6417,2.0,313.2540382,6.961163696,-99999.0,'11133222,11111222,99999999' 
TABS,ioos:station:wmo:42051:1,1999-03-03T22:30:00Z,29.6350,-93.6417,2.0,325.7635578,9.011514856,-99999.0,'11133222,11111222,99999999' 
TABS,ioos:station:wmo:42051:1,1999-03-03T23:00:00Z,29.6350,-93.6417,2.0,323.9781149,8.110887744,-99999.0,'11133222,11111222,99999999' 
TABS,ioos:station:wmo:42051:1,1999-03-03T23:30:00Z,29.6350,-93.6417,2.0,328.2754777,7.359653524,-99999.0,'11133222,11111222,99999999' 
TABS,ioos:station:wmo:42051:1,1999-03-04T00:00:00Z,29.6350,-93.6417,2.0,347.5854855,7.628374663,-99999.0,'11133222,11111222,99999999' 
TABS,ioos:station:wmo:42051:1,1999-03-04T00:30:00Z,29.6350,-93.6417,2.0,8.810505915,6.790117819,-99999.0,'11133222,11111222,99999999' 
TABS,ioos:station:wmo:42051:1,1999-03-04T01:00:00Z,29.6350,-93.6417,2.0,2.435702862,10.58956562,-99999.0,'11111222,11111222,99999999' 
TABS,ioos:station:wmo:42051:1,1999-03-04T01:30:00Z,29.6350,-93.6417,2.0,12.97318076,9.933544181,-99999.0,'11133222,11111222,99999999' 
TABS,ioos:station:wmo:42051:1,1999-03-04T02:00:00Z,29.6350,-93.6417,2.0,14.00815488,9.832395435,-99999.0,'11133222,11111222,99999999' 
TABS,ioos:station:wmo:42051:1,1999-03-04T02:30:00Z,29.6350,-93.6417,2.0,1.067707646,8.051397394,-99999.0,'11133222,11111222,99999999' 
TABS,ioos:station:wmo:42051:1,1999-03-04T03:00:00Z,29.6350,-93.6417,2.0,0.812476154,10.58106327,-99999.0,'11111222,11111222,99999999' 
TABS,ioos:station:wmo:42051:1,1999-03-04T03:30:00Z,29.6350,-93.6417,2.0,11.49479158,9.735255518,-99999.0,'11133222,11111222,99999999' 
TABS,ioos:station:wmo:42051:1,1999-03-04T04:00:00Z,29.6350,-93.6417,2.0,6.039541597,9.884862164,-99999.0,'11133222,11111222,99999999' 
TABS,ioos:station:wmo:42051:1,1999-03-04T04:30:00Z,29.6350,-93.6417,2.0,8.870181816,11.60883284,-99999.0,'11111222,11111222,99999999' 
TABS,ioos:station:wmo:42051:1,1999-03-04T05:00:00Z,29.6350,-93.6417,2.0,12.91889858,11.31643937,-99999.0,'11111222,11111222,99999999' 
TABS,ioos:station:wmo:42051:1,1999-03-04T05:30:00Z,29.6350,-93.6417,2.0,6.7001864,10.19965686,-99999.0,'11111222,11111222,99999999' 
TABS,ioos:station:wmo:42051:1,1999-03-04T06:00:00Z,29.6350,-93.6417,2.0,7.359130893,13.97511002,-99999.0,'11111222,11111222,99999999' 
TABS,ioos:station:wmo:42051:1,1999-03-04T06:30:00Z,29.6350,-93.6417,2.0,5.562199875,12.27780518,-99999.0,'11111222,11111222,99999999' 
TABS,ioos:station:wmo:42051:1,1999-03-04T07:00:00Z,29.6350,-93.6417,2.0,358.610936,12.3736373,-99999.0,'11111222,11111222,99999999' 
TABS,ioos:station:wmo:42051:1,1999-03-04T07:30:00Z,29.6350,-93.6417,2.0,357.693218,11.17906078,-99999.0,'11111222,11111222,99999999' 
TABS,ioos:station:wmo:42051:1,1999-03-04T08:00:00Z,29.6350,-93.6417,2.0,321.3270838,6.673305028,-99999.0,'11133222,11111222,99999999' 
TABS,ioos:station:wmo:42051:1,1999-03-04T08:30:00Z,29.6350,-93.6417,2.0,321.1026166,10.90883128,-99999.0,'11111222,11111222,99999999' 
TABS,ioos:station:wmo:42051:1,1999-03-04T09:00:00Z,29.6350,-93.6417,2.0,323.3405128,8.726058675,-99999.0,'11133222,11111222,99999999' 
TABS,ioos:station:wmo:42051:1,1999-03-04T09:30:00Z,29.6350,-93.6417,2.0,313.141817,9.593414408,-99999.0,'11133222,11111222,99999999' 
TABS,ioos:station:wmo:42051:1,1999-03-04T10:00:00Z,29.6350,-93.6417,2.0,290.5388607,11.45832885,-99999.0,'11111222,11111222,99999999' 
TABS,ioos:station:wmo:42051:1,1999-03-04T10:30:00Z,29.6350,-93.6417,2.0,309.8745575,10.6846853,-99999.0,'11111222,11111222,99999999' 
TABS,ioos:station:wmo:42051:1,1999-03-04T11:00:00Z,29.6350,-93.6417,2.0,321.5434405,8.37721314,-99999.0,'11133222,11111222,99999999' 
TABS,ioos:station:wmo:42051:1,1999-03-04T11:30:00Z,29.6350,-93.6417,2.0,302.9009009,6.038484909,-99999.0,'11133222,11111222,99999999' 
TABS,ioos:station:wmo:42051:1,1999-03-04T12:00:00Z,29.6350,-93.6417,2.0,268.8461313,7.451509914,-99999.0,'11133222,11111222,99999999' 
TABS,ioos:station:wmo:42051:1,1999-03-04T12:30:00Z,29.6350,-93.6417,2.0,295.4002355,6.597764773,-99999.0,'11133222,11111222,99999999' 
TABS,ioos:station:wmo:42051:1,1999-03-04T13:00:00Z,29.6350,-93.6417,2.0,283.1861514,7.189547969,-99999.0,'11133222,11111222,99999999' 
TABS,ioos:station:wmo:42051:1,1999-03-04T13:30:00Z,29.6350,-93.6417,2.0,267.8248401,7.90569415,-99999.0,'11133222,11111222,99999999' 
TABS,ioos:station:wmo:42051:1,1999-03-04T14:00:00Z,29.6350,-93.6417,2.0,269.3658035,13.56082962,-99999.0,'11111222,11111222,99999999' 
TABS,ioos:station:wmo:42051:1,1999-03-04T14:30:00Z,29.6350,-93.6417,2.0,275.6310905,12.12852011,-99999.0,'11111222,11111222,99999999' 
TABS,ioos:station:wmo:42051:1,1999-03-04T15:00:00Z,29.6350,-93.6417,2.0,286.4206092,14.75165753,-99999.0,'11111222,11111222,99999999' 
TABS,ioos:station:wmo:42051:1,1999-03-04T15:30:00Z,29.6350,-93.6417,2.0,290.0925793,13.01189072,-99999.0,'11111222,11111222,99999999' 
TABS,ioos:station:wmo:42051:1,1999-03-04T16:00:00Z,29.6350,-93.6417,2.0,287.7872856,17.05525432,-99999.0,'11111222,11111222,99999999' 
TABS,ioos:station:wmo:42051:1,1999-03-04T16:30:00Z,29.6350,-93.6417,2.0,296.1011609,25.38914926,-99999.0,'11111222,11111222,99999999' 
TABS,ioos:station:wmo:42051:1,1999-03-04T17:00:00Z,29.6350,-93.6417,2.0,301.1345935,25.93584585,-99999.0,'11111222,11111222,99999999' 
TABS,ioos:station:wmo:42051:1,1999-03-04T17:30:00Z,29.6350,-93.6417,2.0,303.5848014,25.580043,-99999.0,'11111222,11111222,99999999' 
TABS,ioos:station:wmo:42051:1,1999-03-04T18:00:00Z,29.6350,-93.6417,2.0,300.4885331,24.38107873,-99999.0,'11111222,11111222,99999999' 